Volver al catálogo

STARLINK-31885

ActivoComunicacionesVLEO
NORAD 59660·PAYLOAD·🇺🇸 United States

Lanzado May 6, 2024 desde Cape Canaveral Space Force Station

Loading…

Próximos Pases (próximas 24 horas)

TLE

ActualizadoSource: CelesTrak SupGP

Época: Sep 15, 2026, 02:41 UTC

1 59660C 24084G   26258.11229167 -.00028618  00000+0 -10365-2 0  2587
2 59660  43.0019  48.6218 0001331 270.7598  44.2536 15.27593325    17

Sigue STARLINK-31885 en tiempo real con AllMySat

Download on the App Store